Weather History for Elizabethton, TN

Change the Weather History Date:

Thursday, May 8, 2014

  Actual Average (KTRI) Record (KTRI)
Temperature  
Mean Temperature 67 °F 61 °F  
Max Temperature 84 °F 74 °F 91 °F (1940)
Min Temperature 50 °F 49 °F 30 °F (1989)
Degree Days  
Heating Degree Days 0 5  
Month to date heating degree days 43  
Since 1 July heating degree days 4297  
Cooling Degree Days 2 1  
Month to date cooling degree days 8  
Year to date cooling degree days 19  
Growing Degree Days 17 (Base 50)    
Moisture  
Dew Point 52 °F    
Average Humidity 64    
Maximum Humidity 100    
Minimum Humidity 28    
Precipitation  
Precipitation 0.00 in 0.12 in 1.20 in (1975)
Month to date precipitation 0.94  
Year to date precipitation 14.53  
Snow  
Snow 0.00 in 0.00 in - ()
Month to date snowfall 0.0  
Since 1 July snowfall 13.3  
Snow Depth -    
Sea Level Pressure  
Sea Level Pressure 30.18 in    
Wind  
Wind Speed 2 mph (WNW)    
Max Wind Speed 14 mph    
Max Gust Speed -    
Visibility 10 miles    
Events      
T = Trace of Precipitation, MM = Missing Value Source: NWS Daily Summary

Daily Weather History Graph

Daily Weather History Graph

Search for Another Location

Airport:

Trip Planner

Search our weather history database for the weather conditions in past years. The results will help you decide how hot, cold, wet, or windy it might be!

Date:

Astronomy

May. 08, 2014 Rise Set
Actual Time 6:28 AM EDT 8:22 PM EDT
Civil Twilight 6:00 AM EDT 8:50 PM EDT
Nautical Twilight 5:26 AM EDT 9:25 PM EDT
Astronomical Twilight 4:49 AM EDT 10:01 PM EDT
Moon 2:32 PM EDT (5/8) 2:48 AM EDT (5/8)
Length of Visible Light 14h 50m
Length of Day
13h 54m
Waxing Gibbous, 64% of the Moon is Illuminated
May 8
Waxing Gibbous
May 14
Full
May 21
Last Quarter
May 28
New
Jun 5
First Quarter

Hourly Weather History & Observations

Time (EDT) Temp. Heat Index Dew Point Humidity Pressure Visibility Wind Dir Wind Speed Gust Speed Precip Events Conditions
12:15 AM 57.2 °F - 53.6 °F 88% 30.13 in 10.0 mi Calm Calm - N/A   Clear
12:35 AM 57.2 °F - 53.6 °F 88% 30.13 in 10.0 mi Calm Calm - N/A   Clear
12:55 AM 55.4 °F - 53.6 °F 94% 30.13 in 10.0 mi Calm Calm - N/A   Clear
1:15 AM 55.4 °F - 53.6 °F 94% 30.13 in 10.0 mi Calm Calm - N/A   Clear
1:35 AM 55.4 °F - 51.8 °F 88% 30.14 in 10.0 mi Calm Calm - N/A   Clear
1:55 AM 55.4 °F - 51.8 °F 88% 30.14 in 10.0 mi Calm Calm - N/A   Clear
2:15 AM 55.4 °F - 51.8 °F 88% 30.13 in 10.0 mi Calm Calm - N/A   Clear
2:35 AM 53.6 °F - 51.8 °F 94% 30.13 in 10.0 mi Calm Calm - N/A   Clear
2:55 AM 55.4 °F - 51.8 °F 88% 30.14 in 10.0 mi Calm Calm - N/A   Clear
3:15 AM 53.6 °F - 51.8 °F 94% 30.14 in 10.0 mi Calm Calm - N/A   Clear
3:35 AM 53.6 °F - 51.8 °F 94% 30.14 in 10.0 mi Calm Calm - N/A   Clear
4:55 AM 51.8 °F - 50.0 °F 94% 30.17 in 10.0 mi Calm Calm - N/A   Clear
5:15 AM 51.8 °F - 50.0 °F 94% 30.18 in 10.0 mi Calm Calm - N/A   Clear
5:35 AM 51.8 °F - 50.0 °F 94% 30.18 in 10.0 mi Calm Calm - N/A   Clear
5:55 AM 50.0 °F - 50.0 °F 100% 30.19 in 10.0 mi Calm Calm - N/A   Clear
6:15 AM 50.0 °F - 50.0 °F 100% 30.20 in 10.0 mi Calm Calm - N/A   Clear
6:35 AM 50.0 °F - 50.0 °F 100% 30.20 in 10.0 mi Calm Calm - N/A   Clear
6:55 AM 50.0 °F - 50.0 °F 100% 30.21 in 10.0 mi Calm Calm - N/A   Clear
7:15 AM 51.8 °F - 50.0 °F 94% 30.22 in 10.0 mi Calm Calm - N/A   Clear
7:35 AM 55.4 °F - 51.8 °F 88% 30.23 in 10.0 mi Calm Calm - N/A   Clear
7:55 AM 55.4 °F - 53.6 °F 94% 30.22 in 10.0 mi Calm Calm - N/A   Clear
8:15 AM 59.0 °F - 53.6 °F 82% 30.23 in 10.0 mi East 3.5 mph - N/A   Clear
8:35 AM 60.8 °F - 53.6 °F 77% 30.23 in 10.0 mi East 3.5 mph - N/A   Clear
8:55 AM 62.6 °F - 53.6 °F 72% 30.24 in 10.0 mi East 3.5 mph - N/A   Clear
9:15 AM 64.4 °F - 55.4 °F 73% 30.24 in 10.0 mi Calm Calm - N/A   Clear
9:35 AM 66.2 °F - 55.4 °F 68% 30.24 in 10.0 mi Calm Calm - N/A   Clear
9:55 AM 69.8 °F - 55.4 °F 60% 30.25 in 10.0 mi SSE 3.5 mph - N/A   Clear
10:15 AM 73.4 °F - 53.6 °F 50% 30.25 in 10.0 mi Variable 5.8 mph - N/A   Clear
10:35 AM 75.2 °F - 53.6 °F 47% 30.25 in 10.0 mi West 5.8 mph - N/A   Clear
10:55 AM 75.2 °F - 51.8 °F 44% 30.25 in 10.0 mi NW 8.1 mph - N/A   Clear
11:15 AM 75.2 °F - 51.8 °F 44% 30.25 in 10.0 mi Variable 5.8 mph - N/A   Clear
11:35 AM 77.0 °F - 53.6 °F 44% 30.25 in 10.0 mi WSW 8.1 mph - N/A   Clear
11:55 AM 78.8 °F - 48.2 °F 34% 30.24 in 10.0 mi NW 9.2 mph - N/A   Clear
12:15 PM 78.8 °F - 48.2 °F 34% 30.24 in 10.0 mi WNW 10.4 mph - N/A   Clear
12:35 PM 78.8 °F - 48.2 °F 34% 30.24 in 10.0 mi Variable 5.8 mph - N/A   Clear
12:55 PM 80.6 °F - 50.0 °F 34% 30.24 in 10.0 mi WSW 9.2 mph - N/A   Clear
1:15 PM 80.6 °F - 50.0 °F 34% 30.23 in 10.0 mi WNW 9.2 mph - N/A   Clear
1:35 PM 80.6 °F - 48.2 °F 32% 30.22 in 10.0 mi West 6.9 mph - N/A   Clear
1:55 PM 80.6 °F - 48.2 °F 32% 30.21 in 10.0 mi WNW 12.7 mph - N/A   Clear
2:15 PM 82.4 °F - 46.4 °F 28% 30.20 in 10.0 mi West 13.8 mph - N/A   Clear
2:35 PM 82.4 °F - 46.4 °F 28% 30.19 in 10.0 mi WNW 11.5 mph - N/A   Clear
2:55 PM 82.4 °F - 48.2 °F 30% 30.19 in 10.0 mi Variable 5.8 mph - N/A   Clear
3:15 PM 82.4 °F - 48.2 °F 30% 30.17 in 10.0 mi WNW 8.1 mph - N/A   Clear
3:35 PM 82.4 °F - 48.2 °F 30% 30.16 in 10.0 mi WSW 8.1 mph - N/A   Clear
3:55 PM 82.4 °F - 48.2 °F 30% 30.15 in 10.0 mi West 9.2 mph - N/A   Clear
4:15 PM 82.4 °F - 48.2 °F 30% 30.14 in 10.0 mi NW 3.5 mph - N/A   Clear
4:35 PM 84.2 °F - 48.2 °F 29% 30.13 in 10.0 mi Variable 4.6 mph - N/A   Clear
4:55 PM 82.4 °F - 48.2 °F 30% 30.13 in 10.0 mi WSW 8.1 mph - N/A   Clear
5:15 PM 82.4 °F - 50.0 °F 32% 30.13 in 10.0 mi NW 6.9 mph - N/A   Clear
5:35 PM 82.4 °F - 51.8 °F 35% 30.12 in 10.0 mi NW 6.9 mph - N/A   Clear
5:55 PM 82.4 °F - 51.8 °F 35% 30.12 in 10.0 mi West 3.5 mph - N/A   Clear
6:15 PM 82.4 °F - 51.8 °F 35% 30.12 in 10.0 mi NNW 3.5 mph - N/A   Clear
6:35 PM 82.4 °F - 51.8 °F 35% 30.13 in 10.0 mi West 4.6 mph - N/A   Clear
6:55 PM 80.6 °F 80.3 °F 53.6 °F 39% 30.12 in 10.0 mi Calm Calm - N/A   Clear
7:15 PM 78.8 °F - 60.8 °F 54% 30.13 in 10.0 mi West 3.5 mph - N/A   Clear
7:35 PM 75.2 °F - 59.0 °F 57% 30.13 in 10.0 mi Calm Calm - N/A   Clear
7:55 PM 69.8 °F - 59.0 °F 68% 30.14 in 10.0 mi Calm Calm - N/A   Clear
8:15 PM 66.2 °F - 57.2 °F 73% 30.15 in 10.0 mi Calm Calm - N/A   Clear
8:35 PM 66.2 °F - 55.4 °F 68% 30.15 in 10.0 mi Calm Calm - N/A   Clear
8:55 PM 64.4 °F - 55.4 °F 73% 30.15 in 10.0 mi Calm Calm - N/A   Clear
9:15 PM 64.4 °F - 55.4 °F 73% 30.16 in 10.0 mi Calm Calm - N/A   Clear
9:35 PM 64.4 °F - 55.4 °F 73% 30.16 in 10.0 mi Calm Calm - N/A   Clear
9:55 PM 62.6 °F - 55.4 °F 77% 30.17 in 10.0 mi Calm Calm - N/A   Clear
10:15 PM 62.6 °F - 55.4 °F 77% 30.17 in 10.0 mi Calm Calm - N/A   Clear
10:35 PM 60.8 °F - 55.4 °F 82% 30.18 in 10.0 mi Calm Calm - N/A   Clear
10:55 PM 60.8 °F - 55.4 °F 82% 30.18 in 10.0 mi Calm Calm - N/A   Clear
11:15 PM 60.8 °F - 55.4 °F 82% 30.18 in 10.0 mi Calm Calm - N/A   Clear
11:35 PM 59.0 °F - 53.6 °F 82% 30.18 in 10.0 mi Calm Calm - N/A   Clear
11:55 PM 59.0 °F - 53.6 °F 82% 30.18 in 10.0 mi Calm Calm - N/A   Clear